Погода в Сосновке

Россия / Ульяновская область     53°36′30″N   48°09′08″E
темп.,
°C
ветер,
м/с
пор.,
м/с
влажн.,
%
обл.,
%
осадки,
мм/ч
давл.,
гПа
погр.,
м
13 апреля, вт
вт1301:00+8в2290100 0.0 103413
04:00+7вюв228925 0.0 103411
07:00+7вюв228962 0.0 103514
10:00+12юв367182 0.0 1035295
13:00+16юв575180 0.0 1033775
16:00+18юв56435 0.0 10321105
19:00+15юв336218 0.0 103140
22:00+11юв226814 0.0 103115
14 апреля, ср
ср1401:00+9юв22745 0.0 103112
04:00+7вюв22745 0.0 103011
07:00+6вюв22775 0.0 103019
10:00+11юв46775 0.0 1029370
13:00+15юв56595 0.0 1027850
16:00+17юв57500 0.0 10251135
19:00+15вюв36675 0.0 1024110
22:00+11юв22780 0.0 102419
15 апреля, чт
чт1501:00+9вюв22850 0.0 102310
04:00+8вюв22870 0.0 102210
07:00+8вюв22890 0.0 102212
10:00+13вюв34643 0.0 1021308
13:00+17юв34490 0.0 1020752
16:00+19юв33443 0.0 10181299
19:00+16всв11531 0.0 101711
22:00+13всв116449 0.0 101711
16 апреля, пт
пт1601:00+11всв1170100 0.0 101710
04:00+10всв1174100 0.0 101610
07:00+10св117464 0.0 101610
10:00+14всв225958 0.0 1016313
13:00+18всв324971 0.0 1016947
16:00+17св435012 0.3 10161004
19:00+14с59653 0.0 1017392
22:00+10ссв511845 0.0 1018401
17 апреля, сб
сб1701:00+7ссв611854 0.0 1019427
04:00+6ссв511882 0.0 1021412
07:00+5ссв511758 0.0 1022509
10:00+8св710475 0.0 1022989
13:00+10ссв78390 0.0 10231519
16:00+10ссв89373 0.0 10241661
19:00+7ссв710430 0.0 10261217
22:00+4св6124766 0.0 1028822